Location: Tierra del Sol
(32.6128°N, 116.3319°W)
Time: 18:59:14
(UTC-08:00)

Daily predictions for brighter satellites

Satellite Brightness Start Highest point End
(mag) Time Altitude Azimuth Time Altitude Azimuth Time Altitude Azimuth
COSMO-SKYMED 1 2.7 17:31:31 10° NNE 17:35:48 58° E 17:40:03 10° S
Cosmos 2237 Rocket 3.5 17:30:36 10° SW 17:35:55 42° WNW 17:41:15 10° N
Cosmos 1666 Rocket 4.2 17:35:14 10° SSE 17:39:08 34° E 17:43:04 10° NNE
BREEZE-M DEB (TANK) 4.0 17:39:04 10° NW 17:43:16 61° SW 17:51:13 10° SE
Cosmos 1538 Rocket 4.1 17:38:39 10° S 17:43:51 66° ESE 17:49:09 10° NNE
SPOT 3 Rocket 4.0 17:38:52 10° S 17:43:58 69° WSW 17:49:07 10° NNW
SL-16 R/B 2.2 17:38:40 10° SSW 17:44:19 90° ESE 17:50:00 10° NNE
Thor Agena Rocket 4.4 17:39:37 10° N 17:44:41 53° WNW 17:49:39 10° SSW
Cosmos 1484 Rocket 2.8 17:42:13 10° SSE 17:46:06 69° ENE 17:50:04 10° N
Cosmos 1340 Rocket 3.1 17:44:38 10° SSW 17:48:34 72° W 17:52:28 10° N
Meteor 1-27 4.3 17:42:52 10° N 17:48:44 79° E 17:54:33 10° S
Meteor 2-10 4.0 17:44:57 10° N 17:50:08 80° E 17:55:28 10° S
Resurs 01 Rocket 3.4 17:49:46 11° ENE 17:50:28 11° ENE 17:51:50 10° NE
Cosmos 304 Rocket 4.4 17:47:53 10° SSW 17:52:37 60° WNW 17:57:23 10° N
Meteor 1-28 Rocket 3.1 17:53:56 10° NNE 17:57:39 73° E 18:01:22 10° S
Cosmos 1680 Rocket 4.4 17:53:55 10° SSE 17:58:13 27° E 18:02:29 10° NE
Tiangong 1 1.1 17:55:20 10° SW 17:58:15 57° SSE 18:00:16 18° ENE
Lacrosse 4 Rocket 2.8 17:58:35 10° NNE 18:01:10 16° ENE 18:01:45 16° ENE
Cosmos 2297 3.7 17:56:28 10° NNW 18:02:10 64° ENE 18:07:50 10° SSE
Cosmos 1869 4.3 18:04:32 10° NNE 18:07:57 26° ENE 18:11:19 10° SE
METEOR-M 4.3 18:05:21 10° SE 18:10:28 48° ENE 18:15:36 10° N
Cosmos 1470 Rocket 4.2 18:08:22 10° SSE 18:12:13 31° E 18:15:29 13° NNE
Cosmos 2279 Rocket 4.5 18:09:37 10° NNW 18:15:46 66° W 18:21:56 10° S
NOSS 3-1 (C) 4.1 18:12:45 10° S 18:17:37 30° ESE 18:20:20 21° ENE
Cosmos 773 Rocket 4.0 18:13:04 10° SSW 18:18:13 88° WNW 18:23:26 10° NNE
NOAA 12 4.0 18:13:34 10° SSE 18:18:43 63° ENE 18:23:55 10° N
Cosmos 1626 3.0 18:17:50 10° SSW 18:21:28 51° W 18:25:08 10° N
Cosmos 1943 4.1 18:17:43 10° SSE 18:22:20 27° ESE 18:23:49 24° ENE
Cosmos 2242 Rocket 3.8 18:20:49 10° N 18:25:06 47° E 18:29:23 10° SSE
Cosmos 1900 4.4 18:24:29 10° NNW 18:29:29 82° WSW 18:34:30 10° SSE
Sich 1 3.7 18:25:36 10° SSW 18:29:58 58° W 18:34:21 10° N
Nadezhda 4 Rocket 4.2 18:23:47 10° S 18:30:02 78° W 18:36:22 10° N
USA 215 3.9 18:28:14 24° E 18:31:09 34° NE 18:36:54 10° NNW
Coronas F rocket 2.3 18:30:41 10° SSW 18:32:58 40° W 18:34:08 22° NNW
Cosmos 2026 Rocket 4.3 18:28:04 10° SSE 18:33:51 42° E 18:39:34 10° NNE
Cosmos 2112 Rocket 4.1 18:29:35 10° S 18:34:37 53° ESE 18:37:38 23° NE
Lacrosse 5 rocket 3.1 18:31:45 10° WNW 18:35:13 31° WSW 18:38:51 10° S
ALOS 2.5 18:34:10 10° SE 18:38:35 44° ENE 18:43:01 10° N
Centaur AC-72 4.3 18:33:47 10° WSW 18:39:14 35° S 18:47:33 15° ESE
Aureole 1 Rocket 4.2 18:35:10 10° SSW 18:40:13 62° WNW 18:46:59 10° N
Cosmos 1633 Rocket 4.0 18:36:15 10° SSW 18:40:31 49° W 18:44:48 10° N
BREEZE M DEB (TANK) 3.6 18:41:54 10° NW 18:42:28 16° NNW 18:42:28 16° NNW
Delta 2 Rocket 3.1 18:43:44 10° SW 18:46:48 52° S 18:46:48 52° S
Cosmos 1455 3.2 18:45:01 10° NNW 18:48:41 46° W 18:52:21 10° SSW
Meteor 2-20 4.5 18:43:17 10° SSE 18:49:09 52° E 18:53:36 18° NNE
Cosmos 1603 3.9 18:43:35 10° SSW 18:49:10 71° WNW 18:54:02 14° NNE
Cosmos 292 Rocket 3.9 18:44:30 10° SSW 18:49:14 72° WNW 18:52:43 18° N
FengYun 1-2 T 4.1 18:46:25 10° SSE 18:51:55 66° ENE 18:57:23 10° N
Cosmos 1092 Rocket 4.3 18:46:15 10° SSW 18:52:32 72° W 18:58:53 10° N
SJ-6B 3.7 18:53:35 10° S 18:57:33 53° W 19:01:35 10° NNW
Spot 2 Rocket 3.3 19:01:52 10° SSE 19:06:55 81° ENE 19:11:58 10° N
Iridium 4 Rocket 4.4 19:06:19 10° SSW 19:10:36 40° W 19:14:39 10° NNW
Milstar 3 4.4 19:06:01 10° WSW 19:11:31 27° SSW 19:17:17 12° SSE
Centaur AC-119 3.6 19:16:31 10° WSW 19:18:32 37° SSW 19:18:32 37° SSW
Resurs 01 Rocket 2.5 19:22:05 10° S 19:27:19 45° WNW 19:30:47 10° NNW
Cosmos 2369 Rocket 4.1 19:23:21 10° N 19:24:42 17° N 19:24:42 17° N
NOSS 3-1 (A) 3.2 19:24:33 10° SSW 19:29:52 80° SSW 19:29:52 80° SSW
Meteor 2-20 Rocket 4.3 19:24:10 10° S 19:30:15 88° W 19:30:40 79° N
Intelsat 5-1 Rocket 4.3 19:27:59 10° SW 19:29:46 17° SSW 19:29:46 17° SSW
Lacrosse 4 Rocket 3.5 19:36:18 10° NW 19:38:15 23° WNW 19:38:15 23° WNW
USA 215 4.0 20:15:37 46° WNW 20:15:37 46° WNW 20:20:19 10° NW
